Location: Bannatyne
(13.0833°N, 59.5333°W)
Time: 11:40:55
(UTC+00:00)

Vanguard 1 - All Passes

Search period start: 22 January 2020 00:00
Search period end: 01 February 2020 00:00
Orbit: 651 x 3832 km, 34.2° (Epoch: 21 January)

Date Brightness Start Highest point End Pass type
(mag) Time Alt. Az. Time Alt. Az. Time Alt. Az.
22 Jan - 01:17:20 10° NNW 01:23:41 27° NNE 01:33:49 10° E visible
22 Jan - 03:36:03 10° NW 03:46:20 82° NE 04:05:47 10° ESE visible
22 Jan - 05:58:00 10° W 06:11:41 43° SW 06:32:18 10° SSE visible
22 Jan - 08:30:34 10° WSW 08:41:03 15° SSW 08:52:22 10° S visible
22 Jan - 16:10:52 10° SSW 16:16:47 18° SSE 16:21:06 10° ESE daylight
22 Jan - 18:31:50 10° WSW 18:38:16 83° NW 18:42:47 10° NE daylight
22 Jan - 20:57:25 10° NW 20:58:52 11° NNW 21:00:20 10° N daylight
23 Jan - 01:37:53 10° NNW 01:44:57 36° NNE 01:57:04 10° E night (unlit)
23 Jan - 03:57:00 10° WNW 04:07:40 80° SW 04:27:34 10° SE visible
23 Jan - 06:20:19 10° W 06:33:45 33° SSW 06:52:43 10° SSE visible
23 Jan - 09:00:58 10° SSW 09:04:30 10° SSW 09:08:06 10° SSW visible
23 Jan - 16:30:44 10° SSW 16:38:21 28° SSE 16:43:20 10° E daylight
23 Jan - 18:53:21 10° WSW 18:59:11 47° NW 19:03:31 10° NE daylight
23 Jan - 23:41:24 10° N 23:43:53 12° NNE 23:46:49 10° NE visible
24 Jan - 01:58:29 10° NW 02:06:05 48° NE 02:19:58 10° ESE night (unlit)
24 Jan - 04:18:10 10° WNW 04:29:09 63° SW 04:48:58 10° SE visible
24 Jan - 06:43:22 10° W 06:56:04 25° SSW 07:12:47 10° SSE visible
24 Jan - 14:32:20 10° S 14:36:02 12° SSE 14:39:11 10° SE daylight
24 Jan - 16:51:14 10° SW 16:59:44 43° SSE 17:04:55 10° ENE daylight
24 Jan - 19:15:17 10° W 19:20:07 28° NNW 19:23:59 10° NNE daylight
25 Jan - 00:01:31 10° NNW 00:05:24 16° NNE 00:10:31 10° ENE visible
25 Jan - 02:19:09 10° NW 02:27:10 64° NE 02:42:27 10° ESE night (unlit)
25 Jan - 04:39:37 10° WNW 04:50:48 49° SSW 05:10:00 10° SE visible
25 Jan - 07:07:31 10° WSW 07:18:42 19° SSW 07:32:22 10° S visible
25 Jan - 14:50:38 10° SSW 14:58:06 18° SSE 15:03:29 10° ESE daylight
25 Jan - 17:12:10 10° SW 17:20:54 69° SSE 17:26:05 10° ENE daylight
25 Jan - 19:37:43 10° WNW 19:41:10 17° NNW 19:44:12 10° NNE daylight
26 Jan - 00:21:48 10° NNW 00:26:43 23° NNE 00:33:55 10° E visible
26 Jan - 02:39:55 10° NW 02:48:17 84° NE 03:04:32 10° ESE visible
26 Jan - 05:01:26 10° W 05:12:40 38° SSW 05:30:42 10° SSE visible
26 Jan - 07:33:37 10° SW 07:41:47 13° SSW 07:50:56 10° S visible
26 Jan - 15:10:21 10° SSW 15:19:56 26° SSE 15:26:04 10° E daylight
26 Jan - 17:33:32 10° WSW 17:41:55 76° NW 17:46:58 10° NE daylight
26 Jan - 20:01:07 10° NW 20:02:25 11° NNW 20:03:41 10° N daylight
27 Jan - 00:42:11 10° NNW 00:47:51 31° NNE 00:56:59 10° E visible
27 Jan - 03:00:53 10° WNW 03:09:31 75° SW 03:26:12 10° SE visible
27 Jan - 05:23:48 10° W 05:34:45 29° SSW 05:51:03 10° SSE visible
27 Jan - 13:11:13 10° S 13:16:10 12° SSE 13:20:23 10° SE daylight
27 Jan - 15:30:42 10° SSW 15:41:34 37° SSE 15:47:56 10° E daylight
27 Jan - 17:55:17 10° WSW 18:02:49 47° NW 18:07:38 10° NE daylight
28 Jan - 01:02:41 10° NW 01:08:51 44° NE 01:19:41 10° ESE visible
28 Jan - 03:22:03 10° WNW 03:30:56 57° SSW 03:47:29 10° SE visible
28 Jan - 05:46:57 10° WSW 05:57:06 21° SSW 06:10:57 10° SSE visible
28 Jan - 13:29:25 10° SSW 13:38:36 17° SSE 13:45:19 10° ESE daylight
28 Jan - 15:51:30 10° SW 16:02:59 54° SSE 16:09:19 10° ENE daylight
28 Jan - 18:17:28 10° W 18:23:43 30° NW 18:28:06 10° NNE daylight
28 Jan - 23:06:29 10° N 23:08:46 12° NNE 23:11:24 10° NE visible
29 Jan - 01:23:18 10° NW 01:29:49 63° NE 01:41:58 10° ESE visible
29 Jan - 03:43:30 10° W 03:52:33 42° SSW 04:08:24 10° SSE visible
29 Jan - 06:11:24 10° SW 06:19:47 15° SSW 06:30:10 10° S visible
29 Jan - 13:49:01 10° SSW 14:00:44 24° SSE 14:08:23 10° ESE daylight
29 Jan - 16:12:42 10° SW 16:24:12 78° SE 16:30:23 10° ENE daylight
29 Jan - 18:40:05 10° WNW 18:44:44 19° NNW 18:48:21 10° NNE daylight
29 Jan - 23:26:19 10° NNW 23:30:02 18° NNE 23:34:54 10° ENE visible
30 Jan - 01:44:03 10° NW 01:50:51 88° NE 02:03:50 10° SE night (unlit)
30 Jan - 04:05:24 10° W 04:14:22 31° SSW 04:28:57 10° SSE visible
30 Jan - 06:39:01 10° SSW 06:42:55 11° SSW 06:47:11 10° S visible
30 Jan - 11:49:54 10° S 11:55:17 12° SSE 12:00:03 10° SE daylight
30 Jan - 14:09:14 10° SSW 14:22:38 34° SSE 14:30:36 10° E daylight
30 Jan - 16:34:18 10° WSW 16:45:14 73° NW 16:51:14 10° NE daylight
30 Jan - 19:03:21 10° NW 19:05:55 13° NNW 19:08:12 10° N daylight
30 Jan - 23:46:33 10° NNW 23:51:06 27° NNE 23:57:49 10° E visible
31 Jan - 02:05:01 10° WNW 02:12:01 68° SSW 02:25:19 10° SE night (unlit)
31 Jan - 04:27:54 10° WSW 04:36:26 23° SSW 04:49:03 10° SSE visible
31 Jan - 12:07:44 10° S 12:18:09 17° SSE 12:26:10 10° ESE daylight
31 Jan - 14:29:54 10° SW 14:44:18 46° SSE 14:52:16 10° ENE daylight
31 Jan - 16:56:18 10° WSW 17:06:11 50° NW 17:11:53 10° NE daylight
